Ontario, OR

6:47 PM MDT on October 19, 2017 (GMT -0600)
Ontario Municipal

Weather History for KONO - April, 2014

Change the Weather History Date:

Sunday, April 6, 2014

  Actual Average Record
Temperature  
Mean Temperature 57 °F 48 °F  
Max Temperature 67 °F 62 °F 84 °F (1960)
Min Temperature 46 °F 34 °F 17 °F (1956)
Degree Days  
Heating Degree Days 8 17  
Month to date heating degree days 95 104  
Since 1 July heating degree days 5439 5404  
Cooling Degree Days 0 0  
Month to date cooling degree days 0 0  
Year to date cooling degree days 0 0  
Growing Degree Days 5 (Base 50)    
Moisture  
Dew Point 39 °F    
Average Humidity 60    
Maximum Humidity 86    
Minimum Humidity 34    
Precipitation  
Precipitation 0.01 in 0.03 in 0.55 in (1963)
Month to date precipitation 0.19 0.16  
Year to date precipitation 3.37 3.15  
Sea Level Pressure  
Sea Level Pressure 30.17 in    
Wind  
Wind Speed 6 mph (NW)    
Max Wind Speed 18 mph    
Max Gust Speed 24 mph    
Visibility 10 miles    
Events Rain    
T = Trace of Precipitation, MM = Missing Value Source: NWS Daily Summary

Daily Weather History Graph

Daily Weather History Graph

Search for Another Location

Airport or City:

Trip Planner

Search our weather history database for the weather conditions in past years. The results will help you decide how hot, cold, wet, or windy it might be!

Date:

Astronomy

Apr. 06, 2014 Rise Set
Actual Time 7:20 AM MDT 8:21 PM MDT
Civil Twilight 6:50 AM MDT 8:50 PM MDT
Nautical Twilight 6:15 AM MDT 9:26 PM MDT
Astronomical Twilight 5:38 AM MDT 10:03 PM MDT
Moon 12:18 PM MDT (4/6) 2:27 AM MDT (4/6)
Length of Visible Light 13h 59m
Length of Day
13h 01m
Waxing Crescent, 44% of the Moon is Illuminated
Apr 6
Waxing Crescent
Apr 7
First Quarter
Apr 15
Full
Apr 22
Last Quarter
Apr 29
New

Hourly Weather History & Observations

Time (MDT) Temp. Windchill Dew Point Humidity Pressure Visibility Wind Dir Wind Speed Gust Speed Precip Events Conditions
12:53 AM 48.0 °F - 39.9 °F 74% 30.10 in 10.0 mi South 3.5 mph - N/A   Overcast
1:53 AM 46.9 °F - 39.9 °F 77% 30.10 in 10.0 mi Calm Calm - N/A   Overcast
2:53 AM 46.0 °F 44.8 °F 41.0 °F 83% 30.11 in 10.0 mi WSW 3.5 mph - 0.00 in   Overcast
3:53 AM 46.9 °F - 42.1 °F 83% 30.11 in 10.0 mi East 3.5 mph - 0.00 in Rain Light Rain
4:53 AM 46.9 °F - 43.0 °F 86% 30.12 in 10.0 mi Calm Calm - 0.01 in   Overcast
5:53 AM 46.0 °F - 43.0 °F 89% 30.13 in 10.0 mi Calm Calm - 0.00 in   Overcast
6:53 AM 46.0 °F 44.8 °F 43.0 °F 89% 30.14 in 10.0 mi NNE 3.5 mph - N/A   Overcast
7:53 AM 46.0 °F - 43.0 °F 89% 30.17 in 9.0 mi Calm Calm - N/A   Overcast
8:53 AM 48.0 °F - 44.1 °F 86% 30.19 in 10.0 mi Calm Calm - N/A   Overcast
9:53 AM 51.1 °F - 42.1 °F 71% 30.19 in 10.0 mi Calm Calm - N/A   Overcast
10:53 AM 55.9 °F - 39.9 °F 55% 30.20 in 10.0 mi West 10.4 mph - N/A   Mostly Cloudy
11:53 AM 57.9 °F - 39.9 °F 51% 30.20 in 10.0 mi West 6.9 mph - N/A   Mostly Cloudy
12:53 PM 57.9 °F - 39.0 °F 49% 30.20 in 10.0 mi West 8.1 mph - 0.00 in   Overcast
1:53 PM 61.0 °F - 37.9 °F 42% 30.19 in 10.0 mi West 9.2 mph - 0.00 in   Overcast
2:53 PM 63.0 °F - 37.9 °F 40% 30.18 in 10.0 mi NNW 13.8 mph - N/A   Mostly Cloudy
3:53 PM 64.9 °F - 36.0 °F 34% 30.18 in 10.0 mi NW 10.4 mph - N/A   Scattered Clouds
4:53 PM 64.0 °F - 35.1 °F 34% 30.17 in 10.0 mi North 5.8 mph - N/A   Overcast
5:53 PM 64.0 °F - 35.1 °F 34% 30.17 in 10.0 mi North 5.8 mph - N/A   Overcast
6:53 PM 64.0 °F - 35.1 °F 34% 30.18 in 10.0 mi North 5.8 mph - N/A   Clear
7:53 PM 61.0 °F - 36.0 °F 39% 30.19 in 10.0 mi North 8.1 mph - N/A   Clear
8:53 PM 53.1 °F - 37.0 °F 55% 30.21 in 10.0 mi NNW 8.1 mph - N/A   Clear
9:53 PM 52.0 °F - 37.0 °F 57% 30.23 in 10.0 mi NNW 10.4 mph - N/A   Clear
10:53 PM 48.0 °F - 37.0 °F 66% 30.26 in 10.0 mi NNW 9.2 mph - N/A   Clear
11:53 PM 52.0 °F - 37.0 °F 57% 30.27 in 10.0 mi NW 4.6 mph - N/A   Clear